Weather History for Cairo, IL

Change the Weather History Date:

Wednesday, November 21, 2012

  Actual Average Record
Temperature  
Mean Temperature 54 °F -  
Max Temperature 68 °F 55 °F 73 °F (1989)
Min Temperature 39 °F 38 °F 19 °F (1964)
Degree Days  
Heating Degree Days 12    
Growing Degree Days 4 (Base 50)    
Moisture  
Dew Point 44 °F    
Average Humidity 78    
Maximum Humidity 94    
Minimum Humidity 46    
Precipitation  
Precipitation 0.00 in - - ()
Sea Level Pressure  
Sea Level Pressure 30.22 in    
Wind  
Wind Speed 2 mph (NNE)    
Max Wind Speed 6 mph    
Max Gust Speed -    
Visibility 5 miles    
Events Fog    
Averages and records for this station are not official NWS values.
T = Trace of Precipitation, MM = Missing Value Source: NWS Daily Summary

Daily Weather History Graph

Daily Weather History Graph

Search for Another Location

Airport:

Trip Planner

Search our weather history database for the weather conditions in past years. The results will help you decide how hot, cold, wet, or windy it might be!

Date:

Astronomy

Nov. 21, 2012 Rise Set
Actual Time 6:42 AM CST 4:43 PM CST
Civil Twilight 6:14 AM CST 5:11 PM CST
Nautical Twilight 5:42 AM CST 5:43 PM CST
Astronomical Twilight 5:11 AM CST 6:14 PM CST
Moon 12:51 PM CST (11/21) 12:09 AM CST (11/21)
Length of Visible Light 10h 57m
Length of Day
10h 00m
First Quarter, 62% of the Moon is Illuminated
Nov 21
First Quarter
Nov 28
Full
Dec 6
Last Quarter
Dec 13
New
Dec 19
First Quarter

Hourly Weather History & Observations

Time (CST) Temp. Windchill Dew Point Humidity Pressure Visibility Wind Dir Wind Speed Gust Speed Precip Events Conditions
12:15 AM 51.8 °F - 46.4 °F 82% 30.17 in 7.0 mi North 3.5 mph - N/A   Clear
12:35 AM 50.0 °F - 44.6 °F 82% 30.16 in 4.0 mi Calm Calm - N/A   Haze
12:55 AM 50.0 °F - 44.6 °F 82% 30.16 in 4.0 mi Calm Calm - N/A   Haze
1:15 AM 46.4 °F - 41.0 °F 81% 30.17 in 0.8 mi Calm Calm - N/A   Mist
1:35 AM 46.4 °F - 42.8 °F 87% 30.18 in 0.2 mi Calm Calm - N/A Fog Fog
1:55 AM 48.2 °F - 44.6 °F 87% 30.19 in 2.5 mi NNW 3.5 mph - N/A   Mist
2:15 AM 48.2 °F - 44.6 °F 87% 30.19 in 3.0 mi NW 3.5 mph - N/A   Mist
2:35 AM 48.2 °F - 44.6 °F 87% 30.19 in 3.0 mi Calm Calm - N/A   Mist
2:55 AM 48.2 °F - 46.4 °F 93% 30.19 in 2.0 mi Calm Calm - N/A   Mist
3:15 AM 46.4 °F 44.3 °F 42.8 °F 87% 30.20 in 0.2 mi West 4.6 mph - N/A Fog Fog
3:35 AM 44.6 °F 42.2 °F 41.0 °F 87% 30.20 in 0.2 mi WNW 4.6 mph - N/A Fog Fog
3:55 AM 46.4 °F - 42.8 °F 87% 30.20 in 0.2 mi Calm Calm - N/A Fog Fog
4:15 AM 44.6 °F - 42.8 °F 93% 30.20 in 0.2 mi Calm Calm - N/A Fog Fog
4:35 AM 42.8 °F - 39.2 °F 87% 30.21 in 0.2 mi Calm Calm - N/A Fog Fog
4:55 AM 41.0 °F - 39.2 °F 93% 30.22 in 0.2 mi Calm Calm - N/A Fog Fog
5:15 AM 41.0 °F - 37.4 °F 87% 30.23 in 0.2 mi Calm Calm - N/A Fog Fog
5:35 AM 41.0 °F - 37.4 °F 87% 30.23 in 0.2 mi Calm Calm - N/A Fog Fog
6:15 AM 39.2 °F 37.0 °F 37.4 °F 93% 30.23 in 0.2 mi North 3.5 mph - N/A Fog Fog
6:35 AM 41.0 °F 39.0 °F 37.4 °F 87% 30.24 in 0.2 mi North 3.5 mph - N/A Fog Fog
6:55 AM 41.0 °F 39.0 °F 39.2 °F 93% 30.25 in 0.2 mi NW 3.5 mph - N/A Fog Fog
7:15 AM 42.8 °F 41.1 °F 41.0 °F 93% 30.25 in 0.2 mi NNW 3.5 mph - N/A Fog Fog
7:35 AM 44.6 °F - 41.0 °F 87% 30.26 in 0.2 mi Calm Calm - N/A Fog Fog
7:55 AM 46.4 °F - 44.6 °F 93% 30.26 in 1.5 mi Calm Calm - N/A   Mist
8:15 AM 50.0 °F - 48.2 °F 94% 30.26 in 1.0 mi Calm Calm - N/A   Mist
8:35 AM 51.8 °F - 50.0 °F 94% 30.26 in 2.5 mi Calm Calm - N/A   Mist
8:55 AM 51.8 °F - 50.0 °F 94% 30.27 in 3.0 mi Calm Calm - N/A   Mist
9:15 AM 53.6 °F - 51.8 °F 94% 30.27 in 4.0 mi Calm Calm - N/A   Clear
9:35 AM 53.6 °F - 51.8 °F 94% 30.28 in 5.0 mi Calm Calm - N/A   Clear
9:55 AM 57.2 °F - 55.4 °F 94% 30.28 in 7.0 mi ENE 3.5 mph - N/A   Clear
10:15 AM 59.0 °F - 55.4 °F 88% 30.28 in 7.0 mi NNE 4.6 mph - N/A   Clear
10:35 AM 60.8 °F - 53.6 °F 77% 30.28 in 7.0 mi ENE 3.5 mph - N/A   Clear
10:55 AM 62.6 °F - 50.0 °F 63% 30.28 in 7.0 mi NE 3.5 mph - N/A   Clear
11:15 AM 62.6 °F - 48.2 °F 59% 30.27 in 10.0 mi ENE 3.5 mph - N/A   Clear
11:35 AM 64.4 °F - 48.2 °F 56% 30.26 in 10.0 mi NE 4.6 mph - N/A   Clear
11:55 AM 64.4 °F - 46.4 °F 52% 30.25 in 10.0 mi East 5.8 mph - N/A   Clear
12:15 PM 66.2 °F - 46.4 °F 49% 30.24 in 10.0 mi Calm Calm - N/A   Clear
12:35 PM 66.2 °F - 46.4 °F 49% 30.24 in 10.0 mi Calm Calm - N/A   Clear
12:55 PM 66.2 °F - 46.4 °F 49% 30.23 in 10.0 mi East 3.5 mph - N/A   Clear
1:15 PM 66.2 °F - 46.4 °F 49% 30.23 in 10.0 mi North 5.8 mph - N/A   Clear
1:35 PM 66.2 °F - 46.4 °F 49% 30.22 in 10.0 mi NNE 4.6 mph - N/A   Clear
2:15 PM 68.0 °F - 46.4 °F 46% 30.21 in 10.0 mi NE 5.8 mph - N/A   Clear
2:35 PM 68.0 °F - 46.4 °F 46% 30.21 in 10.0 mi NE 4.6 mph - N/A   Clear
2:55 PM 68.0 °F - 46.4 °F 46% 30.21 in 10.0 mi ENE 4.6 mph - N/A   Clear
3:15 PM 66.2 °F - 46.4 °F 49% 30.21 in 10.0 mi ENE 3.5 mph - N/A   Clear
3:35 PM 66.2 °F - 46.4 °F 49% 30.21 in 10.0 mi ESE 5.8 mph - N/A   Clear
3:55 PM 64.4 °F - 46.4 °F 52% 30.20 in 10.0 mi ESE 3.5 mph - N/A   Clear
4:15 PM 64.4 °F - 46.4 °F 52% 30.21 in 10.0 mi Calm Calm - N/A   Clear
4:35 PM 60.8 °F - 46.4 °F 59% 30.20 in 7.0 mi Calm Calm - N/A   Clear
4:55 PM 59.0 °F - 46.4 °F 63% 30.20 in 10.0 mi Calm Calm - N/A   Clear
5:15 PM 55.4 °F - 44.6 °F 67% 30.20 in 7.0 mi Calm Calm - N/A   Clear
5:35 PM 55.4 °F - 46.4 °F 72% 30.20 in 10.0 mi Calm Calm - N/A   Clear
5:55 PM 51.8 °F - 44.6 °F 76% 30.21 in 10.0 mi Calm Calm - N/A   Clear
6:15 PM 51.8 °F - 42.8 °F 71% 30.21 in 10.0 mi Calm Calm - N/A   Clear
6:35 PM 50.0 °F - 42.8 °F 76% 30.21 in 10.0 mi Calm Calm - N/A   Clear
6:55 PM 50.0 °F - 44.6 °F 82% 30.21 in 7.0 mi Calm Calm - N/A   Clear
7:15 PM 51.8 °F - 44.6 °F 76% 30.21 in 7.0 mi Calm Calm - N/A   Clear
7:35 PM 48.2 °F - 42.8 °F 82% 30.21 in 7.0 mi Calm Calm - N/A   Clear
7:55 PM 46.4 °F - 41.0 °F 81% 30.21 in 5.0 mi Calm Calm - N/A   Haze
8:15 PM 46.4 °F - 41.0 °F 81% 30.20 in 4.0 mi Calm Calm - N/A   Haze
8:35 PM 44.6 °F - 41.0 °F 87% 30.20 in 3.0 mi Calm Calm - N/A   Haze
8:55 PM 44.6 °F - 41.0 °F 87% 30.20 in 2.5 mi Calm Calm - N/A   Clear
9:15 PM 44.6 °F - 41.0 °F 87% 30.20 in 1.0 mi Calm Calm - N/A   Mist
9:35 PM 42.8 °F - 39.2 °F 87% 30.20 in 1.2 mi Calm Calm - N/A   Mist
9:55 PM 42.8 °F - 39.2 °F 87% 30.20 in 1.8 mi Calm Calm - N/A   Mist
10:15 PM 42.8 °F - 41.0 °F 93% 30.20 in 0.2 mi Calm Calm - N/A Fog Fog
10:35 PM 42.8 °F - 39.2 °F 87% 30.20 in 0.2 mi Calm Calm - N/A Fog Fog
10:55 PM 42.8 °F - 39.2 °F 87% 30.20 in 0.2 mi Calm Calm - N/A Fog Fog
11:15 PM 41.0 °F - 37.4 °F 87% 30.20 in 0.2 mi Calm Calm - N/A Fog Fog
11:35 PM 39.2 °F - 37.4 °F 93% 30.20 in 0.2 mi Calm Calm - N/A Fog Fog
11:55 PM 39.2 °F - 37.4 °F 93% 30.20 in 0.2 mi Calm Calm - N/A Fog Fog